Location: Newark
(48.3831°N, 4.1956°E)
Time: 21:12:50
(UTC+00:00)

Envisat - Pass Details

Date: 19 November 2019
Orbit: 764 x 766 km, 98.1° (Epoch: 14 December)

Event Time Altitude Azimuth Distance (km) Brightness Sun altitude
Rises 17:16:15 0° 156° (SSE) 3,221 6.1 -12.5°
Reaches altitude 10° 17:18:34 10° 153° (SSE) 2,299 5.4 -12.8°
Maximum altitude 17:23:35 67° 72° (ENE) 833 2.9 -13.6°
Drops below altitude 10° 17:28:38 10° 351° (N) 2,315 5.4 -14.5°
Sets 17:30:58 0° 349° (N) 3,245 6.2 -14.8°
